ICEYE-X11

operational
NORAD ID: 48918 Int'l Des: 2021-059 Owner: ICEYE Country: FI
LEOCIRCULARRETROGRADE

Über ICEYE-X11

Beschreibung wird geladen...

Live-Position

3D-Globus wird geladen...

Nächste Überflüge

Höhenverlauf

Altitude vs Time

uPlot chart will show altitude changes over time

Zweizeiliger Elementsatz

1 48918U 21059AR 26061.17532760 .00097999 00000-0 73184-3 0 9992
2 48918 97.6452 248.3764 0004504 2.5089 357.6195 15.72412997261053
Epoch: 2. März 2026 • Age: 37 hours

Aktueller Status

Höhe 363.2 km
Geschwindigkeit 7.70 km/s
Subsatellitenpunkt 72.84°N, 125.97°W
Startdatum 30. Juni 2021
Alter 4.6 years
Typ earth observation

Technische Details

Klassifizierung Payload
Masse 80.00 kg
Trockenmasse 80.00 kg
Gesamtmasse 80.00 kg
Länge 0.80 m
Durchmesser 0.60 m
Spannweite 1.50 m
Form Box + pan
Hersteller ICEYE
Bus-Typ ICEYE
Phasenstatus In Orbit
Besitzer/Staat ICEYE/FI

Große Konstellationen

Loading constellations...